Weather History for Douglas, WY

Change the Weather History Date:

Tuesday, December 18, 2012

  Actual Average Record
Temperature  
Mean Temperature 28 °F 23 °F  
Max Temperature 35 °F 37 °F 58 °F (2013)
Min Temperature 20 °F 10 °F -10 °F (2005)
Degree Days  
Heating Degree Days 37 42  
Month to date heating degree days 480 731  
Since 1 July heating degree days 2027 2553  
Cooling Degree Days 0 0  
Month to date cooling degree days 0 0  
Year to date cooling degree days 831 486  
Moisture  
Dew Point 3 °F    
Average Humidity 36    
Maximum Humidity 52    
Minimum Humidity 20    
Precipitation  
Precipitation 0.00 in 0.01 in 0.03 in (2008)
Month to date precipitation T 0.25  
Year to date precipitation 5.26 13.24  
Sea Level Pressure  
Sea Level Pressure 29.76 in    
Wind  
Wind Speed 9 mph (NW)    
Max Wind Speed 23 mph    
Max Gust Speed 29 mph    
Visibility 10 miles    
Events      
T = Trace of Precipitation, MM = Missing Value Source: NWS Daily Summary

Daily Weather History Graph

Daily Weather History Graph

Search for Another Location

Airport:

Trip Planner

Search our weather history database for the weather conditions in past years. The results will help you decide how hot, cold, wet, or windy it might be!

Date:

Astronomy

Dec. 18, 2012 Rise Set
Actual Time 7:27 AM MST 4:29 PM MST
Civil Twilight 6:55 AM MST 5:01 PM MST
Nautical Twilight 6:19 AM MST 5:37 PM MST
Astronomical Twilight 5:45 AM MST 6:11 PM MST
Moon 11:01 AM MST (12/18) 11:06 PM MST (12/18)
Length of Visible Light 10h 06m
Length of Day
9h 01m
Waxing Crescent, 35% of the Moon is Illuminated
Dec 18
Waxing Crescent
Dec 19
First Quarter
Dec 28
Full
Jan 4
Last Quarter
Jan 11
New

Hourly Weather History & Observations

Time (MST) Temp. Windchill Dew Point Humidity Pressure Visibility Wind Dir Wind Speed Gust Speed Precip Events Conditions
12:53 AM 28.0 °F 17.0 °F 9.0 °F 45% 29.57 in 10.0 mi NW 13.8 mph - N/A   Clear
1:53 AM 26.1 °F 15.0 °F 6.1 °F 43% 29.61 in 10.0 mi NW 12.7 mph - N/A   Clear
2:53 AM 23.0 °F 11.7 °F 6.1 °F 48% 29.65 in 10.0 mi NNW 11.5 mph - N/A   Clear
3:53 AM 21.9 °F 13.4 °F 6.1 °F 51% 29.68 in 10.0 mi NW 6.9 mph - N/A   Clear
4:53 AM 21.0 °F 10.6 °F 7.0 °F 55% 29.70 in 10.0 mi NNW 9.2 mph - N/A   Clear
5:53 AM 25.0 °F 11.7 °F 7.0 °F 46% 29.71 in 10.0 mi West 17.3 mph - N/A   Clear
6:53 AM 24.1 °F 14.4 °F 6.1 °F 46% 29.76 in 10.0 mi WNW 9.2 mph - N/A   Clear
7:53 AM 23.0 °F 14.7 °F 6.1 °F 48% 29.76 in 10.0 mi NNW 6.9 mph - N/A   Clear
8:53 AM 26.1 °F - 6.1 °F 43% 29.76 in 10.0 mi Calm Calm - N/A   Clear
9:53 AM 28.9 °F 20.4 °F 6.1 °F 38% 29.77 in 10.0 mi West 9.2 mph - N/A   Partly Cloudy
10:53 AM 32.0 °F 22.1 °F 3.0 °F 29% 29.77 in 10.0 mi NW 13.8 mph - N/A   Clear
11:53 AM 34.0 °F 23.0 °F -0.0 °F 24% 29.75 in 10.0 mi NW 18.4 mph - N/A   Partly Cloudy
12:53 PM 34.0 °F 23.4 °F -0.0 °F 24% 29.74 in 10.0 mi WNW 17.3 mph 24.2 mph N/A   Clear
1:53 PM 33.1 °F 21.2 °F -2.9 °F 21% 29.74 in 10.0 mi WNW 20.7 mph 26.5 mph N/A   Clear
2:53 PM 32.0 °F 20.8 °F -5.1 °F 20% 29.76 in 10.0 mi WNW 17.3 mph 25.3 mph N/A   Mostly Cloudy
3:53 PM 30.0 °F 23.2 °F -2.9 °F 24% 29.79 in 10.0 mi NW 6.9 mph - N/A   Partly Cloudy
4:53 PM 27.0 °F - -2.9 °F 27% 29.81 in 10.0 mi Calm Calm - N/A   Partly Cloudy
5:53 PM 19.9 °F - -2.0 °F 38% 29.83 in 10.0 mi Calm Calm - N/A   Scattered Clouds
6:53 PM 23.0 °F 17.0 °F -0.0 °F 37% 29.83 in 10.0 mi North 4.6 mph - N/A   Mostly Cloudy
7:53 PM 21.9 °F 15.7 °F 1.9 °F 42% 29.87 in 10.0 mi West 4.6 mph - N/A   Overcast
8:53 PM 21.9 °F - 3.0 °F 44% 29.87 in 10.0 mi Calm Calm - N/A   Overcast
9:53 PM 21.9 °F - 3.0 °F 44% 29.86 in 10.0 mi Calm Calm - N/A   Overcast
10:53 PM 21.9 °F - 3.0 °F 44% 29.86 in 10.0 mi Calm Calm - N/A   Overcast
11:53 PM 23.0 °F 15.8 °F 3.0 °F 42% 29.85 in 10.0 mi NE 5.8 mph - N/A   Overcast